Change the Weather History Date:

Thursday, October 3, 2013

  Actual Average Record
Temperature  
Mean Temperature 36 °F 49 °F  
Max Temperature 41 °F 62 °F 80 °F (2010)
Min Temperature 31 °F 36 °F 24 °F (1969)
Degree Days  
Heating Degree Days 29 16  
Month to date heating degree days 50 46  
Since 1 July heating degree days 280 374  
Cooling Degree Days 0 0  
Month to date cooling degree days 0 0  
Year to date cooling degree days 517 286  
Moisture  
Dew Point 34 °F    
Average Humidity 89    
Maximum Humidity 96    
Minimum Humidity 82    
Precipitation  
Precipitation 0.36 in 0.03 in 0.96 in (1994)
Month to date precipitation 0.37 0.09  
Year to date precipitation 3.94 6.79  
Sea Level Pressure  
Sea Level Pressure 29.89 in    
Wind  
Wind Speed 9 mph (SW)    
Max Wind Speed 24 mph    
Max Gust Speed 26 mph    
Visibility 5 miles    
Events Fog , Rain , Snow , Thunderstorm    
T = Trace of Precipitation, MM = Missing Value Source: NWS Daily Summary

Daily Weather History Graph

Daily Weather History Graph

Search for Another Location

Airport or City:

Trip Planner

Search our weather history database for the weather conditions in past years. The results will help you decide how hot, cold, wet, or windy it might be!

Date:

Astronomy

Oct. 03, 2013 Rise Set
Actual Time 7:15 AM MDT 6:54 PM MDT
Civil Twilight 6:47 AM MDT 7:21 PM MDT
Nautical Twilight 6:15 AM MDT 7:53 PM MDT
Astronomical Twilight 5:43 AM MDT 8:26 PM MDT
Moon 5:51 AM MDT (10/3) 6:04 PM MDT (10/3)
Length of Visible Light 12h 33m
Length of Day
11h 38m
Waning Crescent, 2% of the Moon is Illuminated
Oct 3
Waning Crescent
Oct 4
New
Oct 11
First Quarter
Oct 18
Full
Oct 26
Last Quarter

Hourly Weather History & Observations

Time (MDT) Temp. Windchill Dew Point Humidity Pressure Visibility Wind Dir Wind Speed Gust Speed Precip Events Conditions
12:04 AM 39.2 °F 31.6 °F 37.4 °F 93% 29.97 in 10.0 mi North 12.7 mph - 0.00 in Rain Light Rain
12:18 AM 39.2 °F 31.6 °F 35.6 °F 87% 29.97 in 10.0 mi North 12.7 mph - 0.00 in   Overcast
12:54 AM 39.0 °F 33.4 °F 36.0 °F 89% 29.85 in 10.0 mi WNW 8.1 mph - 0.00 in Rain Light Rain
1:54 AM 39.9 °F - 37.0 °F 89% 29.79 in 10.0 mi Calm Calm - 0.01 in Rain Light Rain
2:51 AM 39.2 °F 33.6 °F 37.4 °F 93% 29.92 in 10.0 mi ESE 8.1 mph - 0.00 in Rain Light Rain
2:54 AM 39.9 °F 33.4 °F 37.9 °F 93% 29.75 in 10.0 mi ESE 10.4 mph - 0.00 in Rain Light Rain
3:25 AM 39.2 °F 35.0 °F 37.4 °F 93% 29.89 in 10.0 mi SE 5.8 mph - 0.00 in Rain Light Rain
3:54 AM 39.9 °F 35.8 °F 37.0 °F 89% 29.73 in 10.0 mi East 5.8 mph - 0.00 in   Overcast
4:54 AM 39.9 °F 34.5 °F 37.9 °F 93% 29.72 in 10.0 mi ESE 8.1 mph - 0.01 in   Overcast
5:18 AM 39.2 °F 35.0 °F 37.4 °F 93% 29.88 in 3.0 mi ESE 5.8 mph - 0.04 in Rain Rain
5:36 AM 39.2 °F 33.6 °F 37.4 °F 93% 29.85 in 10.0 mi East 8.1 mph - 0.04 in Rain Light Rain
5:54 AM 39.9 °F 32.9 °F 37.0 °F 89% 29.70 in 10.0 mi ESE 11.5 mph - 0.04 in   Scattered Clouds
6:54 AM 39.9 °F 36.7 °F 36.0 °F 86% 29.70 in 10.0 mi ENE 4.6 mph - 0.00 in Rain Light Rain
7:34 AM 39.2 °F 35.9 °F 37.4 °F 93% 29.85 in 7.0 mi NE 4.6 mph - 0.03 in Rain Rain
7:40 AM 39.2 °F - 37.4 °F 93% 29.86 in 5.0 mi Calm Calm - 0.04 in Rain , Thunderstorm Rain
7:54 AM 39.9 °F 35.1 °F 37.9 °F 93% 29.73 in 2.5 mi NNW 6.9 mph - 0.08 in Rain , Thunderstorm Rain
7:59 AM 39.2 °F 35.9 °F 37.4 °F 93% 29.85 in 2.5 mi Variable 4.6 mph - 0.01 in Rain Rain
8:02 AM 39.2 °F 32.5 °F 37.4 °F 93% 29.85 in 1.8 mi NNW 10.4 mph - 0.01 in Rain Rain
8:16 AM 39.2 °F 34.2 °F 37.4 °F 93% 29.87 in 2.0 mi NW 6.9 mph - 0.01 in Rain Light Rain
8:23 AM 39.2 °F 34.2 °F 37.4 °F 93% 29.88 in 3.0 mi NW 6.9 mph - 0.01 in Rain Light Rain
8:30 AM 39.2 °F 35.9 °F 37.4 °F 93% 29.87 in 3.0 mi NW 4.6 mph - 0.03 in Rain Rain
8:39 AM 39.2 °F 37.0 °F 37.4 °F 93% 29.87 in 2.5 mi NNW 3.5 mph - 0.04 in Rain Rain
8:46 AM 39.2 °F - 37.4 °F 93% 29.87 in 4.0 mi Calm Calm - 0.04 in Rain Light Rain
8:54 AM 39.0 °F 32.8 °F 36.0 °F 89% 29.78 in 9.0 mi WSW 9.2 mph - 0.04 in Rain Light Rain
9:02 AM 39.2 °F 34.2 °F 35.6 °F 87% 29.87 in 10.0 mi WSW 6.9 mph - 0.00 in   Overcast
9:05 AM 39.2 °F 33.6 °F 35.6 °F 87% 29.87 in 10.0 mi WSW 8.1 mph - 0.00 in   Overcast
9:15 AM 39.2 °F 33.0 °F 35.6 °F 87% 29.88 in 4.0 mi WSW 9.2 mph - 0.01 in Rain Rain
9:40 AM 37.4 °F 27.8 °F 35.6 °F 93% 29.88 in 5.0 mi SW 17.3 mph - 0.04 in Rain Rain
9:54 AM 37.0 °F 27.0 °F 35.1 °F 93% 29.82 in 7.0 mi SW 18.4 mph - 0.05 in Rain Light Rain
10:18 AM 37.4 °F 27.8 °F 33.8 °F 87% 29.90 in 4.0 mi West 17.3 mph 25.3 mph 0.01 in Snow Light Snow
10:38 AM 37.4 °F 27.5 °F 33.8 °F 87% 29.91 in 6.0 mi West 18.4 mph - 0.01 in Snow Light Snow
10:46 AM 35.6 °F 24.5 °F 33.8 °F 93% 29.91 in 5.0 mi West 20.7 mph - 0.01 in Snow Light Snow
10:54 AM 36.0 °F 24.7 °F 33.1 °F 89% 29.86 in 5.0 mi West 21.9 mph - 0.01 in Snow Light Snow
11:13 AM 35.6 °F 26.2 °F 33.8 °F 93% 29.91 in 2.0 mi West 15.0 mph - 0.00 in Snow Light Snow
11:18 AM 35.6 °F 26.6 °F 33.8 °F 93% 29.92 in 1.5 mi West 13.8 mph - 0.00 in Snow Light Snow
11:32 AM 33.8 °F 22.8 °F 32.0 °F 93% 29.93 in 1.2 mi West 18.4 mph - 0.00 in Snow Light Snow
11:43 AM 33.8 °F 25.3 °F 32.0 °F 93% 29.93 in 0.5 mi WSW 11.5 mph - 0.00 in Fog , Snow Snow
11:54 AM 33.1 °F 25.5 °F 32.0 °F 96% 29.91 in 0.2 mi WSW 9.2 mph - 0.01 in Fog , Snow Heavy Snow
12:30 PM 33.8 °F 26.4 °F 32.0 °F 93% 29.93 in 0.5 mi West 9.2 mph - 0.05 in Fog , Snow Snow
12:39 PM 33.8 °F 27.7 °F 32.0 °F 93% 29.93 in 0.8 mi West 6.9 mph - 0.05 in Snow Light Snow
12:54 PM 33.1 °F 25.5 °F 30.9 °F 92% 29.93 in 0.8 mi West 9.2 mph - 0.05 in Snow Light Snow
1:03 PM 33.8 °F 27.7 °F 32.0 °F 93% 29.93 in 1.2 mi West 6.9 mph - 0.00 in Snow Light Snow
1:23 PM 33.8 °F 29.6 °F 30.2 °F 87% 29.91 in 3.0 mi WNW 4.6 mph - 0.00 in Snow Light Snow
1:46 PM 35.6 °F 32.8 °F 30.2 °F 81% 29.91 in 8.0 mi West 3.5 mph - 0.00 in Snow Light Snow
1:54 PM 35.1 °F 29.3 °F 32.0 °F 89% 29.88 in 9.0 mi West 6.9 mph - 0.00 in   Overcast
2:54 PM 36.0 °F 30.3 °F 32.0 °F 86% 29.86 in 10.0 mi South 6.9 mph - N/A   Overcast
3:54 PM 36.0 °F 28.5 °F 32.0 °F 86% 29.88 in 10.0 mi SSE 10.4 mph - N/A   Overcast
4:25 PM 35.6 °F 28.6 °F 33.8 °F 93% 29.92 in 2.5 mi SSE 9.2 mph - 0.00 in Snow Light Snow
4:33 PM 35.6 °F 29.2 °F 33.8 °F 93% 29.92 in 1.2 mi SSE 8.1 mph - 0.00 in Snow Light Snow
4:38 PM 35.6 °F 29.9 °F 32.0 °F 87% 29.92 in 0.8 mi SSE 6.9 mph - 0.00 in Snow Light Snow
4:45 PM 33.8 °F 25.8 °F 32.0 °F 93% 29.94 in 0.8 mi South 10.4 mph - 0.01 in Snow Light Snow
4:54 PM 34.0 °F 26.6 °F 32.0 °F 92% 29.91 in 0.2 mi SSE 9.2 mph - 0.02 in Fog , Snow Heavy Snow
5:00 PM 33.8 °F 25.8 °F 30.2 °F 87% 29.93 in 0.5 mi SSE 10.4 mph - 0.00 in Fog , Snow Snow
5:06 PM 33.8 °F 27.0 °F 32.0 °F 93% 29.93 in 1.0 mi SSE 8.1 mph - 0.00 in Snow Light Snow
5:18 PM 33.8 °F 28.6 °F 32.0 °F 93% 29.94 in 3.0 mi South 5.8 mph - 0.00 in Snow Light Snow
5:23 PM 35.6 °F 29.2 °F 32.0 °F 87% 29.95 in 6.0 mi SSE 8.1 mph - 0.00 in Snow Light Snow
5:54 PM 35.1 °F 29.3 °F 33.1 °F 92% 29.94 in 2.5 mi South 6.9 mph - 0.00 in Snow Light Snow
6:01 PM 35.6 °F 32.8 °F 32.0 °F 87% 29.95 in 4.0 mi South 3.5 mph - 0.00 in Snow Light Snow
6:54 PM 34.0 °F 28.0 °F 28.0 °F 79% 29.97 in 3.0 mi WSW 6.9 mph - 0.00 in Snow Light Snow
7:54 PM 34.0 °F 25.5 °F 30.0 °F 85% 29.97 in 10.0 mi SSW 11.5 mph - 0.00 in   Overcast
8:54 PM 34.0 °F 27.2 °F 30.9 °F 89% 29.97 in 10.0 mi SSW 8.1 mph - N/A   Overcast
10:54 PM 32.0 °F 23.0 °F 28.0 °F 85% 30.01 in 10.0 mi WSW 11.5 mph - N/A   Overcast
11:20 PM 33.8 °F 25.8 °F 28.4 °F 81% 30.00 in 10.0 mi WSW 10.4 mph - N/A   Overcast
11:54 PM 33.1 °F 24.9 °F 28.0 °F 82% 30.03 in 7.0 mi WSW 10.4 mph - 0.00 in Snow Light Snow